Hourly Data Report for October 26, 2015

All times are specified in Local Standard Time (LST). Add 1 hour to adjust for Daylight Saving Time where and when it is observed.

PETAWAWA AWOS 2
ONTARIO

45°57'00.000" N
77°19'00.000" W
130.10 m
6106396
71625
YWA

Download Data

Hourly Data (October 2015)
Hourly Data Report for October 26, 2015
Temp Definition
°C
Dew Point Temp Definition
°C
Rel Hum Definition
%
Wind Dir Definition
10's deg

Wind Spd Definition
km/h
Visibility Definition
km
Stn Press Definition
kPa
Hmdx Definition


Wind Chill Definition


Weather Definition


TIME
00:00 -0.7 -3.9 79 30 6 14.5 101.32   -3 LegendNANA
01:00 -3.2 -4.6 90 26 4 14.5 101.36   -5 LegendNANA
02:00 -2.6 -4.4 87 28 4 14.5 101.40   -4 LegendNANA
03:00 -4.0 -4.9 93 24 6 14.5 101.45   -7 LegendNANA
04:00 -3.2 -4.5 91 29 7 14.5 101.51   -6 LegendNANA
05:00 -3.5 -4.6 92 27 7 14.5 101.59   -6 LegendNANA
06:00 -4.4 -5.3 93 25 4 14.5 101.65   -6 LegendNANA
07:00 -4.3 -5.2 93   0 14.5 101.72     LegendNANA
08:00 -1.7 -3.5 88 30 4 14.5 101.78   -3 LegendNANA
09:00 1.0 -1.4 84   0 14.5 101.84     LegendNANA
10:00 3.4 -1.0 73 6 4 14.5 101.85     Snow
11:00 4.2 -0.4 72 6 9 14.5 101.81     LegendNANA
12:00 4.7 -1.5 64 9 7 14.5 101.76     LegendNANA
13:00 6.5 -2.8 51 34 13 14.5 101.69     LegendNANA
14:00 7.3 -2.8 49 20 6 14.5 101.62     LegendNANA
15:00 8.4 -2.9 45 30 13 14.5 101.59     LegendNANA
16:00 8.6 -2.7 45 29 6 14.5 101.58     LegendNANA
17:00 5.9 -2.7 54   0 14.5 101.57     LegendNANA
18:00 2.0 -1.6 77 17 4 14.5 101.60     LegendNANA
19:00 0.0 -2.7 82 21 4 14.5 101.64   -1 LegendNANA
20:00 0.8 -2.0 82   0 14.5 101.64     LegendNANA
21:00 -1.9 -3.8 87   0 14.5 101.67     LegendNANA
22:00 -2.1 -3.5 90   0 14.5 101.68     LegendNANA
23:00 -2.5 -3.7 91   0 14.5 101.68     LegendNANA

Notes on Data Quality.

Legend

  • E = Estimated
  • M = Missing
  • NA = Not Available
  • ‡ = Partner data that is not subject to review by the National Climate Archives
Date modified: